Back to catalog

STARLINK-37095

AliveCommunicationsVLEO
NORAD 68237·PAYLOAD·🇺🇸 United States

Launched Mar 17, 2026 from Vandenberg Space Force Base

Loading…

Next Passes (next 24 hours)

TLE

FreshSource: CelesTrak SupGP

Epoch: Sep 14, 2026, 14:26 UTC

1 68237C 26054F   26257.60187500  .00048790  00000+0  14413-2 0  2571
2 68237  53.1560 129.6130 0001458 109.8780 193.4236 15.34370300    16

Track STARLINK-37095 in real time with AllMySat

Download on the App Store